Погода в Лепеле

Погода в Лепеле : погода сейчас, прогноз погоды и архив. Всё, что Вы хотите узнать о погоде в Лепеле!

Хотите узнать прогноз погоды в Лепеле? Тогда Вам сюда: Погода в Лепеле

Поиск расширенной информации на нашем сайте:

Полезная информация: Колесные краны автомобильные либхер аренда автокранов.

Другие новости

Новости СМИ2

Главная страница сайта

Новости сайта

03.07.2017

Напоминаем, что на нашем специализированном сайте Метеоцентр.Азия вы можете получить высокодетализированные автоматические прогнозы погоды по пунктам России, СНГ и мира в авиационном формате (включающие направление и скорость ветра, видимость, явления погоды, количество и форму облачности, нижнюю и верхнюю границу облачности).

Рекомендуем: диски bmw

Погода в Лепеле - сегодня

Время (UTC), дата Ветер
(°,м/с) 
Видим.   Явления Облачность Т
(°С)
Тd
(°С)
f(%) Тe
(°С)
Pmin
(гПа)
dP
(гПа)
Po
(мм)
O2
(г/м3)
Тmin Tmax R s Состояние
почвы
18 12.11.17 180 (Ю) 3{11}  12000 м    9/9 840 м 
[Sc]
+2.8 -0.8 77 +1  1003.6    737  294    +3.3       
06 13.11.17 150 (ЮВ) 15000 м    9/9 750 м 
[Sc]
+2.2 -0.6 82 +2  1009.9    741  296  +2.2         
18 13.11.17 080 (В) 2700 м  снег{дождь}  10/10 150 м 
[Frnb|Ns]
+0.1 -0.2 98 -1  1008.1    740  298    +3.6   
06 14.11.17 290 (З) 16000 м  {снег}  10/10 300 м 
[St]
+0.2 -0.4 96 -1  1011.6    742  299  +0    равномерный
мокрый или
старый снег
100% 
18 14.11.17 220 (ЮЗ) 10 км    10/10 240 м 
[St]
+1.1 +0.6 96 1019.3    748  300    +1.1     
06 15.11.17 200 (Ю) 12000 м    10/10 330 м 
[St]
+0.5 -0.1 96 -1  1018.7    748  301  +0.4      мокрый или
старый снег
50-90% 
18 15.11.17 210 (ЮЗ) 12000 м  в посл. час дождь{снег}  10/10 330 м 
[St]
+3.7 +3.2 97 +2  1019    748  297    +3.9     
06 16.11.17 260 (З) 3{13}  16000 м  {дождь}  ясно 
+3.5 +2.5 93 +2  1021.2    750  298  +3.4    0.3     
18 16.11.17 150 (ЮВ) 1{11}  13000 м    ясно 
+0.5 -0.3 94 +1  1024.7    752  302    +6.5       
06 17.11.17 180 (Ю) 13000 м    9/9 1020 м 
[Sc]
-0.1 -0.4 98 -1  1022.2    750  302  -1.6         
18 17.11.17 210 (ЮЗ) 5000 м  в посл. час морось{дождь}  10/10 150 м 
[St]
+2 +1.7 98 +1  1018.3    747  299    +3.9  0.7     
06 18.11.17 230 (ЮЗ) 10 км    9/9 840 м 
[Sc]
+1.7 +1.2 96 +1  1017.5    747  299  +0.7         
18 18.11.17 210 (ЮЗ) 13000 м    9/9 900 м 
[Sc]
+1.3 -0.9 85 +2  1012.1    743  298    +4.8       
06 19.11.17 180 (Ю) 11000 м    10/10 300 м 
[St]
-0.5 -1.7 92 -1  1006.2    738  298  -1.6         
18 19.11.17 210 (ЮЗ) 4000 м  дымка{снег}  10/10 150 м 
[St]
+0.8 +0.5 98 -1  1003.8    737  296    +1.4     
06 20.11.17 180 (Ю) 10 км  {дождь}  10/0 средняя 
[As op]
+1.2 +0.4 94 1006.3    739  296  +0.7    0.3     
18 20.11.17 170 (Ю) 4500 м  слаб. морось  10/10 180 м 
[St]
+1.7 +1.2 96 +2  1007.8    740  296    +3.1  0.1     
06 21.11.17 тихо ()   3300 м  слаб. снег{морось}  10/10 300 м 
[Frnb|Ns]
+0.1 -0.2 98 1009    740  298  +0.1       
18 21.11.17 250 (З) 10 км  {снег}  10/10 450 м 
[St]
+0.3 -0.3 96 +1  1011    742  299    +2.1  0.3     
06 22.11.17 290 (З) 12000 м  {снег}  10/10 360 м 
[St]
+0 -0.6 96 +1  1013    743  300  -0.5    0.2     
18 22.11.17 350 (С) 13000 м    10/10 400 м 
[St]
-1.6 -3 90 -1  1018.7    747  303    +0.9       
06 23.11.17 160 (Ю) 13000 м    9/9 630 м 
[Sc]
-2 -2.9 94 -3  1021.5    749  305  -2         
18 23.11.17 170 (Ю) 13000 м    8/0 верхняя 
[Ci fib]
-0.6 -2.4 88 -2  1020.6    749  303    +0.1       
06 24.11.17 170 (Ю) 12000 м    9/9 500 м 
[Sc]
-0.6 -2.7 86 -3  1018.7    748  302  -1.4         
18 24.11.17 170 (Ю) 3{10}  10 км    10/10 330 м 
[St]
+0.3 -1.4 88 -1  1017.9    747  301    +1.9       
Время (UTC), дата Ветер
(°,м/с) 
Видим.   Явления Облачность Т
(°С)
Тd
(°С)
f(%) Тe
(°С)
Pmin
(гПа)
dP
(гПа)
Po
(мм)
O2
(г/м3)
Тmin Tmax R s Состояние
почвы

Для получения пояснительной информации подведите курсор к названию столбца.

ПОГОДА в Лепеле - архив

Всё, что Вы хотите узнать о погоде в Лепеле - удобно и подробно!

Выберите нужную дату (начиная с 1 января 2015* года) и нажмите кнопку "Найти".
Будут отображены архивные сводки погоды по пункту Лепель, начиная с указанной даты.


Отображать данные в формате CSV (для использования в таблицах Excel)


Внимание! Наш архив погоды предназначен исключительно для личного некоммерческого использования в познавательных целях. Если Вам необходимы официальные справки о состоянии погоды (для производственных, юридических, коммерческих и т.п. целей), обращайтесь в органы Росгидромета.

*Примечание: данная дата относится к архиву по метеостанциям СССР (Россия, СНГ, Балтия).
Архив по метеостанциям Зарубежной Европы и Азии (кроме Китая) хранится 10 дней, по другим регионам земного шара (Китай, Африка, Америка, Австралия, Океания) - 1 день.

Лепель - район местоположения метеостанции


Название, широта, долгота, высота метеостанции:
Лепель 54.9°ш. 28.7°д. 174 м над ур. моря [Беларусь]

Дополнительная информация

В oтличие oт бoльшинства пoгoдных сайтoв мы публикуем пoдрoбную метеoинфoрмацию в детальнoм прoфессиoнальнoм фoрмате.

Характеристики температуры и влажнoсти вoздуха измеряются на высoте 2 м в тени вдали oт зданий и деревьев.
Скoрoсть ветра измеряется на высoте 10 м (на урoвне рoста челoвека скoрoсть ветра ниже в 1.5-2 раза). Если метеoстанция нахoдится в гoрoде или в лесу, тo скoрoсть ветра занижена на 2-4 м/с пo сравнению с oткрытым местoм. Скoрoсть ветра над акватoриями крупных рек и oзёр, а также на вершинах хoлмoв на 2-5 м/с выше, чем в oбычных услoвиях.
Атмoсфернoе давление в разных тoчках местнoсти мoжет значительнo oтличаться oт давления на метеoстанции, в зависимoсти oт услoвий рельефа (при пoдъёме на 10 м давление пoнижается примернo на 1 мм рт.ст.).